Location: Munkebjergskolens Observatorium
(55.3864°N, 10.3987°E)
Time: 01:28:34
(UTC+01:00)

BlueWalker 3 - Pass Details

Date: 30 November 2022
Orbit: 498 x 517 km, 53.2° (Epoch: 08 February)

Event Time Altitude Azimuth Distance (km) Brightness Sun altitude
Rises 19:10:39 0° 267° (W) 2,628 6.9 -26.7°
Reaches altitude 10° 19:12:52 10° 265° (W) 1,737 5.7 -27.0°
Enters shadow 19:15:21 36° 251° (WSW) 828 3.4 -27.3°
